Time,TemperatureF,DewpointF,PressureIn,WindDirection,WindDirectionDegrees,WindSpeedMPH,WindSpeedGustMPH,Humidity,HourlyPrecipIn,Conditions,Clouds,dailyrainin,SoftwareType,DateUTC
2013-02-25 00:01:00,42.7,32.5,22.12,SE,130,0.0,0.0,67,0.00,,,0.00,Wunderground v.1.15,2013-02-25 06:01:00,
2013-02-25 00:07:00,42.5,32.7,22.12,SE,130,0.0,1.0,68,0.00,,,0.00,Wunderground v.1.15,2013-02-25 06:07:00,
2013-02-25 00:12:00,42.3,32.5,22.12,SE,130,0.0,0.0,68,0.00,,,0.00,Wunderground v.1.15,2013-02-25 06:12:00,
2013-02-25 00:17:00,42.1,32.7,22.12,WSW,244,0.0,0.0,69,0.00,,,0.00,Wunderground v.1.15,2013-02-25 06:17:00,
2013-02-25 00:23:00,42.0,32.6,22.12,WSW,244,0.0,0.0,69,0.00,,,0.00,Wunderground v.1.15,2013-02-25 06:23:00,
2013-02-25 00:28:00,41.8,32.7,19.11,WSW,244,0.0,0.0,70,0.00,,,0.00,Wunderground v.1.15,2013-02-25 06:28:00,
2013-02-25 00:33:00,41.7,32.6,19.11,WSW,244,0.0,0.0,70,0.00,,,0.00,Wunderground v.1.15,2013-02-25 06:33:00,
2013-02-25 00:39:00,41.5,32.4,19.11,WSW,244,0.0,0.0,70,0.00,,,0.00,Wunderground v.1.15,2013-02-25 06:39:00,
2013-02-25 00:44:00,41.3,32.2,19.11,WSW,244,0.0,0.0,70,0.00,,,0.00,Wunderground v.1.15,2013-02-25 06:44:00,
2013-02-25 00:49:00,41.1,32.1,19.11,WSW,244,0.0,0.0,70,0.00,,,0.00,Wunderground v.1.15,2013-02-25 06:49:00,
2013-02-25 00:55:00,40.8,31.8,19.11,WSW,244,0.0,0.0,70,0.00,,,0.00,Wunderground v.1.15,2013-02-25 06:55:00,
2013-02-25 01:00:00,40.5,31.8,19.11,WSW,244,0.0,0.0,71,0.00,,,0.00,Wunderground v.1.15,2013-02-25 07:00:00,
2013-02-25 01:05:00,40.2,31.5,19.11,ESE,103,0.0,0.0,71,0.00,,,0.00,Wunderground v.1.15,2013-02-25 07:05:00,
2013-02-25 01:10:00,40.0,31.7,19.11,East,101,0.0,0.0,72,0.00,,,0.00,Wunderground v.1.15,2013-02-25 07:10:00,
2013-02-25 01:16:00,39.8,31.5,19.11,East,101,0.0,0.0,72,0.00,,,0.00,Wunderground v.1.15,2013-02-25 07:16:00,
2013-02-25 01:21:00,39.6,31.3,19.11,East,101,0.0,0.0,72,0.00,,,0.00,Wunderground v.1.15,2013-02-25 07:21:00,
2013-02-25 01:26:00,39.4,31.1,19.11,East,101,0.0,0.0,72,0.00,,,0.00,Wunderground v.1.15,2013-02-25 07:26:00,
2013-02-25 01:32:00,39.2,30.9,19.11,East,101,0.0,0.0,72,0.00,,,0.00,Wunderground v.1.15,2013-02-25 07:32:00,
2013-02-25 01:37:00,39.0,31.1,19.11,East,101,0.0,0.0,73,0.00,,,0.00,Wunderground v.1.15,2013-02-25 07:37:00,
2013-02-25 01:42:00,38.8,30.9,19.11,East,101,0.0,0.0,73,0.00,,,0.00,Wunderground v.1.15,2013-02-25 07:42:00,
2013-02-25 01:47:00,38.5,30.6,19.11,East,101,0.0,0.0,73,0.00,,,0.00,Wunderground v.1.15,2013-02-25 07:47:00,
2013-02-25 01:53:00,38.3,30.4,19.11,East,101,0.0,0.0,73,0.00,,,0.00,Wunderground v.1.15,2013-02-25 07:53:00,
2013-02-25 01:58:00,38.0,30.4,19.11,East,101,0.0,0.0,74,0.00,,,0.00,Wunderground v.1.15,2013-02-25 07:58:00,
2013-02-25 02:03:00,37.8,29.9,19.11,East,101,0.0,0.0,73,0.00,,,0.00,Wunderground v.1.15,2013-02-25 08:03:00,
2013-02-25 02:08:00,37.5,29.6,19.11,East,101,0.0,0.0,73,0.00,,,0.00,Wunderground v.1.15,2013-02-25 08:08:00,
2013-02-25 02:13:00,37.1,29.2,19.11,East,101,0.0,0.0,73,0.00,,,0.00,Wunderground v.1.15,2013-02-25 08:13:00,
2013-02-25 02:18:00,36.8,29.3,19.11,East,101,0.0,0.0,74,0.00,,,0.00,Wunderground v.1.15,2013-02-25 08:18:00,
2013-02-25 02:23:00,36.5,29.3,19.11,East,101,0.0,1.0,75,0.00,,,0.00,Wunderground v.1.15,2013-02-25 08:23:00,
2013-02-25 02:28:00,36.2,29.4,19.11,East,101,0.0,1.0,76,0.00,,,0.00,Wunderground v.1.15,2013-02-25 08:28:00,
2013-02-25 02:33:00,36.1,29.6,19.11,East,101,0.0,0.0,77,0.00,,,0.00,Wunderground v.1.15,2013-02-25 08:33:00,
2013-02-25 02:38:00,36.0,29.5,19.11,NNW,328,0.0,3.0,77,0.00,,,0.00,Wunderground v.1.15,2013-02-25 08:38:00,
2013-02-25 02:43:00,35.9,29.7,19.11,NNW,327,0.0,0.0,78,0.00,,,0.00,Wunderground v.1.15,2013-02-25 08:43:00,
2013-02-25 02:48:00,35.9,30.0,19.11,NNW,328,0.0,0.0,79,0.00,,,0.00,Wunderground v.1.15,2013-02-25 08:48:00,
2013-02-25 02:53:00,35.8,29.9,19.11,NNW,328,0.0,0.0,79,0.00,,,0.00,Wunderground v.1.15,2013-02-25 08:53:00,
2013-02-25 02:58:00,35.7,29.8,19.11,NNW,327,0.0,0.0,79,0.00,,,0.00,Wunderground v.1.15,2013-02-25 08:58:00,
2013-02-25 03:03:00,35.7,29.8,19.11,NNW,328,0.0,1.0,79,0.00,,,0.00,Wunderground v.1.15,2013-02-25 09:03:00,
2013-02-25 03:08:00,35.7,30.1,19.11,NNW,328,0.0,1.0,80,0.00,,,0.00,Wunderground v.1.15,2013-02-25 09:08:00,
2013-02-25 03:13:00,35.7,30.1,19.11,NNW,328,0.0,0.0,80,0.00,,,0.00,Wunderground v.1.15,2013-02-25 09:13:00,
2013-02-25 03:18:00,35.6,30.3,19.11,NNW,328,0.0,0.0,81,0.00,,,0.00,Wunderground v.1.15,2013-02-25 09:18:00,
2013-02-25 03:23:00,35.6,30.3,19.11,NNW,328,0.0,0.0,81,0.00,,,0.00,Wunderground v.1.15,2013-02-25 09:23:00,
2013-02-25 03:28:00,35.6,30.3,19.11,NNW,327,0.0,0.0,81,0.00,,,0.00,Wunderground v.1.15,2013-02-25 09:28:00,
2013-02-25 03:33:00,35.6,30.3,19.11,NNW,327,0.0,0.0,81,0.00,,,0.00,Wunderground v.1.15,2013-02-25 09:33:00,
2013-02-25 03:38:00,35.5,30.2,19.11,NNW,327,0.0,1.0,81,0.00,,,0.00,Wunderground v.1.15,2013-02-25 09:38:00,
2013-02-25 03:43:00,35.5,30.5,19.11,NNW,327,0.0,0.0,82,0.00,,,0.00,Wunderground v.1.15,2013-02-25 09:43:00,
2013-02-25 03:48:00,35.5,30.5,19.11,NNW,328,0.0,1.0,82,0.00,,,0.00,Wunderground v.1.15,2013-02-25 09:48:00,
2013-02-25 03:53:00,35.5,30.5,19.11,NNW,328,0.0,0.0,82,0.00,,,0.00,Wunderground v.1.15,2013-02-25 09:53:00,
2013-02-25 03:58:00,35.5,30.5,19.11,NNW,328,0.0,0.0,82,0.00,,,0.00,Wunderground v.1.15,2013-02-25 09:58:00,
2013-02-25 04:03:00,35.5,30.5,19.11,NNW,327,0.0,0.0,82,0.00,,,0.00,Wunderground v.1.15,2013-02-25 10:03:00,
2013-02-25 04:08:00,35.6,30.6,19.11,NNW,328,0.0,1.0,82,0.00,,,0.00,Wunderground v.1.15,2013-02-25 10:08:00,
2013-02-25 04:13:00,35.6,30.6,19.11,NNW,328,0.0,0.0,82,0.00,,,0.00,Wunderground v.1.15,2013-02-25 10:13:00,
2013-02-25 04:18:00,35.6,30.6,19.11,ESE,109,0.0,1.0,82,0.00,,,0.00,Wunderground v.1.15,2013-02-25 10:18:00,
2013-02-25 04:23:00,35.8,31.1,19.11,ENE,63,0.0,2.0,83,0.00,,,0.00,Wunderground v.1.15,2013-02-25 10:23:00,
2013-02-25 04:28:00,35.9,31.2,19.11,East,99,0.0,3.0,83,0.00,,,0.00,Wunderground v.1.15,2013-02-25 10:28:00,
2013-02-25 04:33:00,36.0,31.3,19.11,East,100,0.0,1.0,83,0.00,,,0.00,Wunderground v.1.15,2013-02-25 10:33:00,
2013-02-25 04:38:00,36.1,31.1,17.27,South,185,0.0,1.0,82,0.00,,,0.00,Wunderground v.1.15,2013-02-25 10:38:00,
2013-02-25 04:43:00,36.4,31.4,17.27,East,80,0.0,1.0,82,0.00,,,0.00,Wunderground v.1.15,2013-02-25 10:43:00,
2013-02-25 04:48:00,36.6,31.6,17.27,ESE,109,0.0,1.0,82,0.00,,,0.00,Wunderground v.1.15,2013-02-25 10:48:00,
2013-02-25 04:53:00,36.9,31.9,17.27,East,94,1.0,2.0,82,0.00,,,0.00,Wunderground v.1.15,2013-02-25 10:53:00,
2013-02-25 04:58:00,37.1,31.8,17.27,ESE,114,0.0,2.0,81,0.00,,,0.00,Wunderground v.1.15,2013-02-25 10:58:00,
2013-02-25 05:03:00,37.4,31.8,17.27,ENE,69,0.0,2.0,80,0.00,,,0.00,Wunderground v.1.15,2013-02-25 11:03:00,
2013-02-25 05:08:00,37.6,32.0,17.27,NE,51,0.0,2.0,80,0.00,,,0.00,Wunderground v.1.15,2013-02-25 11:08:00,
2013-02-25 05:13:00,37.8,31.9,17.27,SSE,163,0.0,4.0,79,0.00,,,0.00,Wunderground v.1.15,2013-02-25 11:13:00,
2013-02-25 05:18:00,37.9,31.7,17.27,North,9,0.0,4.0,78,0.00,,,0.00,Wunderground v.1.15,2013-02-25 11:18:00,
2013-02-25 05:23:00,38.1,31.8,17.27,SE,134,0.0,3.0,78,0.00,,,0.00,Wunderground v.1.15,2013-02-25 11:23:00,
2013-02-25 05:28:00,38.2,31.9,17.27,SE,142,0.0,3.0,78,0.00,,,0.00,Wunderground v.1.15,2013-02-25 11:28:00,
2013-02-25 05:33:00,38.3,31.7,17.27,ENE,69,1.0,2.0,77,0.00,,,0.00,Wunderground v.1.15,2013-02-25 11:33:00,
2013-02-25 05:38:00,38.5,31.6,17.27,ESE,119,0.0,3.0,76,0.00,,,0.00,Wunderground v.1.15,2013-02-25 11:38:00,
2013-02-25 05:43:00,38.6,31.7,17.27,ENE,75,0.0,4.0,76,0.00,,,0.00,Wunderground v.1.15,2013-02-25 11:43:00,
2013-02-25 05:49:00,38.7,31.8,17.27,ESE,114,0.0,5.0,76,0.00,,,0.00,Wunderground v.1.15,2013-02-25 11:49:00,
2013-02-25 05:54:00,38.8,31.6,17.27,SE,130,2.0,3.0,75,0.00,,,0.00,Wunderground v.1.15,2013-02-25 11:54:00,
2013-02-25 05:59:00,38.8,31.6,17.27,ESE,122,1.0,3.0,75,0.00,,,0.00,Wunderground v.1.15,2013-02-25 11:59:00,
2013-02-25 06:04:00,38.9,31.3,17.27,ESE,119,0.0,4.0,74,0.00,,,0.00,Wunderground v.1.15,2013-02-25 12:04:00,
2013-02-25 06:09:00,38.9,31.3,17.27,East,94,0.0,4.0,74,0.00,,,0.00,Wunderground v.1.15,2013-02-25 12:09:00,
2013-02-25 06:14:00,39.0,31.1,17.27,East,97,0.0,3.0,73,0.00,,,0.00,Wunderground v.1.15,2013-02-25 12:14:00,
2013-02-25 06:19:00,39.0,31.1,17.27,ESE,103,1.0,4.0,73,0.00,,,0.00,Wunderground v.1.15,2013-02-25 12:19:00,
2013-02-25 06:24:00,39.1,30.8,17.27,North,360,2.0,2.0,72,0.00,,,0.00,Wunderground v.1.15,2013-02-25 12:24:00,
2013-02-25 06:29:00,39.1,30.8,17.27,SE,128,4.0,5.0,72,0.00,,,0.00,Wunderground v.1.15,2013-02-25 12:29:00,
2013-02-25 06:34:00,39.1,30.8,17.27,SE,131,0.0,1.0,72,0.00,,,0.00,Wunderground v.1.15,2013-02-25 12:34:00,
2013-02-25 06:39:00,39.2,30.9,17.27,SSW,213,1.0,4.0,72,0.00,,,0.00,Wunderground v.1.15,2013-02-25 12:39:00,
2013-02-25 06:44:00,39.1,30.5,17.27,ESE,121,0.0,2.0,71,0.00,,,0.00,Wunderground v.1.15,2013-02-25 12:44:00,
2013-02-25 06:49:00,39.1,30.5,17.27,ENE,67,0.0,2.0,71,0.00,,,0.00,Wunderground v.1.15,2013-02-25 12:49:00,
2013-02-25 06:54:00,39.1,30.5,17.27,NE,46,0.0,2.0,71,0.00,,,0.00,Wunderground v.1.15,2013-02-25 12:54:00,
2013-02-25 06:59:00,39.1,30.5,17.27,ENE,60,0.0,2.0,71,0.00,,,0.00,Wunderground v.1.15,2013-02-25 12:59:00,
2013-02-25 07:04:00,39.1,30.5,17.27,NNW,346,2.0,2.0,71,0.00,,,0.00,Wunderground v.1.15,2013-02-25 13:04:00,
2013-02-25 07:09:00,39.2,30.6,17.27,East,89,0.0,2.0,71,0.00,,,0.00,Wunderground v.1.15,2013-02-25 13:09:00,
2013-02-25 07:14:00,39.2,30.6,17.27,East,79,0.0,3.0,71,0.00,,,0.00,Wunderground v.1.15,2013-02-25 13:14:00,
2013-02-25 07:19:00,39.2,30.6,17.27,NE,37,0.0,4.0,71,0.00,,,0.00,Wunderground v.1.15,2013-02-25 13:19:00,
2013-02-25 07:24:00,39.3,30.7,17.27,ESE,118,1.0,3.0,71,0.00,,,0.00,Wunderground v.1.15,2013-02-25 13:24:00,
2013-02-25 07:29:00,39.3,30.7,17.27,East,92,0.0,4.0,71,0.00,,,0.00,Wunderground v.1.15,2013-02-25 13:29:00,
2013-02-25 07:34:00,39.4,30.8,17.27,ESE,118,0.0,4.0,71,0.00,,,0.00,Wunderground v.1.15,2013-02-25 13:34:00,
2013-02-25 07:39:00,39.5,30.5,17.27,East,92,0.0,6.0,70,0.00,,,0.00,Wunderground v.1.15,2013-02-25 13:39:00,
2013-02-25 07:44:00,39.5,30.5,17.27,WSW,244,0.0,5.0,70,0.00,,,0.00,Wunderground v.1.15,2013-02-25 13:44:00,
2013-02-25 07:49:00,39.6,30.6,17.27,East,92,2.0,5.0,70,0.00,,,0.00,Wunderground v.1.15,2013-02-25 13:49:00,
2013-02-25 07:54:00,39.7,30.7,17.27,NE,49,1.0,4.0,70,0.00,,,0.00,Wunderground v.1.15,2013-02-25 13:54:00,
2013-02-25 07:59:00,39.8,30.5,17.27,East,101,0.0,7.0,69,0.00,,,0.00,Wunderground v.1.15,2013-02-25 13:59:00,
2013-02-25 08:04:00,39.8,30.5,17.27,South,188,1.0,4.0,69,0.00,,,0.00,Wunderground v.1.15,2013-02-25 14:04:00,
2013-02-25 08:10:00,40.0,30.3,17.27,East,82,0.0,2.0,68,0.00,,,0.00,Wunderground v.1.15,2013-02-25 14:10:00,
2013-02-25 08:15:00,40.1,30.7,17.27,SE,126,0.0,3.0,69,0.00,,,0.00,Wunderground v.1.15,2013-02-25 14:15:00,
2013-02-25 08:20:00,40.2,30.5,17.27,NE,46,0.0,1.0,68,0.00,,,0.00,Wunderground v.1.15,2013-02-25 14:20:00,
2013-02-25 08:25:00,40.2,30.5,17.27,SE,142,0.0,5.0,68,0.00,,,0.00,Wunderground v.1.15,2013-02-25 14:25:00,
2013-02-25 08:30:00,40.4,30.7,17.27,East,87,6.0,10.0,68,0.00,,,0.00,Wunderground v.1.15,2013-02-25 14:30:00,
2013-02-25 08:35:00,40.6,30.5,17.27,SSE,155,1.0,10.0,67,0.00,,,0.00,Wunderground v.1.15,2013-02-25 14:35:00,
2013-02-25 08:40:00,40.8,30.7,17.27,NW,318,3.0,3.0,67,0.00,,,0.00,Wunderground v.1.15,2013-02-25 14:40:00,
2013-02-25 08:45:00,41.0,30.9,17.27,SE,124,1.0,11.0,67,0.00,,,0.00,Wunderground v.1.15,2013-02-25 14:45:00,
2013-02-25 08:50:00,41.1,30.6,17.27,East,95,0.0,2.0,66,0.00,,,0.00,Wunderground v.1.15,2013-02-25 14:50:00,
2013-02-25 08:55:00,41.4,30.9,17.27,North,350,2.0,4.0,66,0.00,,,0.00,Wunderground v.1.15,2013-02-25 14:55:00,
2013-02-25 09:00:00,41.5,30.6,17.27,NNE,32,5.0,5.0,65,0.00,,,0.00,Wunderground v.1.15,2013-02-25 15:00:00,
2013-02-25 09:05:00,41.6,30.3,17.27,South,182,1.0,7.0,64,0.00,,,0.00,Wunderground v.1.15,2013-02-25 15:05:00,
2013-02-25 09:10:00,41.6,30.3,17.27,SE,126,1.0,6.0,64,0.00,,,0.00,Wunderground v.1.15,2013-02-25 15:10:00,
2013-02-25 09:15:00,41.7,30.4,17.27,ENE,66,3.0,9.0,64,0.00,,,0.00,Wunderground v.1.15,2013-02-25 15:15:00,
2013-02-25 09:20:00,41.7,30.4,17.27,SSE,161,1.0,2.0,64,0.00,,,0.00,Wunderground v.1.15,2013-02-25 15:20:00,
2013-02-25 09:25:00,41.7,30.4,17.27,ESE,111,0.0,5.0,64,0.00,,,0.00,Wunderground v.1.15,2013-02-25 15:25:00,
2013-02-25 09:30:00,41.7,30.4,17.27,ESE,103,1.0,1.0,64,0.00,,,0.00,Wunderground v.1.15,2013-02-25 15:30:00,
2013-02-25 09:35:00,41.7,30.4,17.27,ENE,67,0.0,3.0,64,0.00,,,0.00,Wunderground v.1.15,2013-02-25 15:35:00,
2013-02-25 09:40:00,41.6,30.7,17.27,ESE,118,2.0,3.0,65,0.00,,,0.00,Wunderground v.1.15,2013-02-25 15:40:00,
2013-02-25 09:45:00,41.6,30.7,17.27,NNE,19,2.0,4.0,65,0.00,,,0.00,Wunderground v.1.15,2013-02-25 15:45:00,
2013-02-25 09:50:00,41.5,31.4,17.27,East,84,2.0,3.0,67,0.00,,,0.00,Wunderground v.1.15,2013-02-25 15:50:00,
2013-02-25 09:55:00,41.3,31.5,17.27,WSW,248,2.0,3.0,68,0.00,,,0.00,Wunderground v.1.15,2013-02-25 15:55:00,
2013-02-25 10:00:00,41.1,31.7,17.27,SE,130,3.0,5.0,69,0.00,,,0.00,Wunderground v.1.15,2013-02-25 16:00:00,
2013-02-25 10:05:00,40.9,31.5,17.27,NW,324,3.0,5.0,69,0.00,,,0.00,Wunderground v.1.15,2013-02-25 16:05:00,
2013-02-25 10:10:00,40.7,31.3,17.27,South,173,0.0,1.0,69,0.00,,,0.00,Wunderground v.1.15,2013-02-25 16:10:00,
2013-02-25 10:15:00,40.7,31.7,17.27,South,175,0.0,2.0,70,0.00,,,0.00,Wunderground v.1.15,2013-02-25 16:15:00,
2013-02-25 10:21:00,40.6,31.2,17.27,South,175,0.0,0.0,69,0.00,,,0.00,Wunderground v.1.15,2013-02-25 16:21:00,
2013-02-25 10:26:00,40.6,31.6,17.27,South,173,0.0,1.0,70,0.00,,,0.00,Wunderground v.1.15,2013-02-25 16:26:00,
2013-02-25 10:31:00,40.6,32.3,17.27,ENE,67,0.0,4.0,72,0.00,,,0.00,Wunderground v.1.15,2013-02-25 16:31:00,
2013-02-25 10:36:00,40.5,31.8,17.27,East,96,0.0,5.0,71,0.00,,,0.01,Wunderground v.1.15,2013-02-25 16:36:00,
2013-02-25 10:41:00,40.5,31.8,18.84,ENE,78,0.0,4.0,71,0.00,,,0.01,Wunderground v.1.15,2013-02-25 16:41:00,
2013-02-25 10:46:00,40.5,31.8,18.84,ESE,103,3.0,7.0,71,0.00,,,0.01,Wunderground v.1.15,2013-02-25 16:46:00,
2013-02-25 10:51:00,40.6,31.6,18.84,NE,34,3.0,5.0,70,0.00,,,0.01,Wunderground v.1.15,2013-02-25 16:51:00,
2013-02-25 10:56:00,40.6,31.2,18.84,NE,36,6.0,8.0,69,0.00,,,0.01,Wunderground v.1.15,2013-02-25 16:56:00,
2013-02-25 11:01:00,40.7,31.3,18.84,North,350,1.0,5.0,69,0.00,,,0.01,Wunderground v.1.15,2013-02-25 17:01:00,
2013-02-25 11:06:00,40.8,31.4,18.84,North,351,0.0,8.0,69,0.00,,,0.01,Wunderground v.1.15,2013-02-25 17:06:00,
2013-02-25 11:11:00,40.9,31.9,18.84,SSE,157,4.0,6.0,70,0.00,,,0.01,Wunderground v.1.15,2013-02-25 17:11:00,
2013-02-25 11:16:00,40.8,31.8,18.84,ESE,103,4.0,8.0,70,0.00,,,0.01,Wunderground v.1.15,2013-02-25 17:16:00,
2013-02-25 11:21:00,40.8,31.8,18.84,ENE,68,1.0,11.0,70,0.00,,,0.01,Wunderground v.1.15,2013-02-25 17:21:00,
2013-02-25 11:26:00,40.8,32.1,18.84,ENE,61,2.0,11.0,71,0.00,,,0.01,Wunderground v.1.15,2013-02-25 17:26:00,
2013-02-25 11:31:00,40.7,32.4,18.84,NE,42,1.0,2.0,72,0.00,,,0.02,Wunderground v.1.15,2013-02-25 17:31:00,
2013-02-25 11:36:00,40.6,32.6,18.84,SSW,202,0.0,6.0,73,0.00,,,0.02,Wunderground v.1.15,2013-02-25 17:36:00,
2013-02-25 11:41:00,40.5,32.5,18.84,ESE,119,2.0,4.0,73,0.00,,,0.02,Wunderground v.1.15,2013-02-25 17:41:00,
2013-02-25 11:46:00,40.4,32.8,18.84,NE,43,1.0,5.0,74,0.00,,,0.02,Wunderground v.1.15,2013-02-25 17:46:00,
2013-02-25 11:51:00,40.3,32.7,18.84,ESE,122,1.0,4.0,74,0.00,,,0.02,Wunderground v.1.15,2013-02-25 17:51:00,
2013-02-25 11:56:00,40.2,32.6,18.84,SE,133,0.0,9.0,74,0.00,,,0.02,Wunderground v.1.15,2013-02-25 17:56:00,
2013-02-25 12:01:00,40.2,32.6,18.84,ENE,61,2.0,4.0,74,0.00,,,0.02,Wunderground v.1.15,2013-02-25 18:01:00,
2013-02-25 12:06:00,40.2,32.6,18.84,SSE,153,0.0,7.0,74,0.00,,,0.02,Wunderground v.1.15,2013-02-25 18:06:00,
2013-02-25 12:11:00,40.2,32.6,18.84,ESE,114,3.0,5.0,74,0.00,,,0.02,Wunderground v.1.15,2013-02-25 18:11:00,
2013-02-25 12:16:00,40.3,32.7,18.84,ESE,115,10.0,10.0,74,0.00,,,0.02,Wunderground v.1.15,2013-02-25 18:16:00,
2013-02-25 12:21:00,40.4,32.8,18.84,NE,48,4.0,4.0,74,0.00,,,0.02,Wunderground v.1.15,2013-02-25 18:21:00,
2013-02-25 12:26:00,40.5,32.5,18.84,South,178,0.0,10.0,73,0.00,,,0.02,Wunderground v.1.15,2013-02-25 18:26:00,
2013-02-25 12:31:00,40.6,32.6,18.84,ESE,115,4.0,5.0,73,0.00,,,0.02,Wunderground v.1.15,2013-02-25 18:31:00,
2013-02-25 12:36:00,40.7,32.4,18.84,SSE,163,2.0,9.0,72,0.00,,,0.02,Wunderground v.1.15,2013-02-25 18:36:00,
2013-02-25 12:41:00,40.8,32.5,18.84,SSE,155,0.0,3.0,72,0.00,,,0.02,Wunderground v.1.15,2013-02-25 18:41:00,
2013-02-25 12:46:00,40.9,32.2,18.84,SSE,154,1.0,4.0,71,0.00,,,0.02,Wunderground v.1.15,2013-02-25 18:46:00,
2013-02-25 12:51:00,40.9,32.2,18.84,SSE,151,0.0,3.0,71,0.00,,,0.02,Wunderground v.1.15,2013-02-25 18:51:00,
2013-02-25 12:56:00,41.1,32.4,18.84,NNW,327,0.0,4.0,71,0.00,,,0.02,Wunderground v.1.15,2013-02-25 18:56:00,
2013-02-25 13:01:00,41.1,32.4,18.84,NNW,345,0.0,4.0,71,0.00,,,0.02,Wunderground v.1.15,2013-02-25 19:01:00,
2013-02-25 13:06:00,41.2,32.9,18.84,NNW,328,0.0,9.0,72,0.00,,,0.02,Wunderground v.1.15,2013-02-25 19:06:00,
2013-02-25 13:11:00,41.2,33.2,18.84,SSE,153,0.0,2.0,73,0.00,,,0.02,Wunderground v.1.15,2013-02-25 19:11:00,
2013-02-25 13:16:00,41.1,33.4,18.84,ENE,74,0.0,2.0,74,0.00,,,0.02,Wunderground v.1.15,2013-02-25 19:16:00,
2013-02-25 13:21:00,41.1,33.8,18.84,ENE,71,0.0,1.0,75,0.00,,,0.03,Wunderground v.1.15,2013-02-25 19:21:00,
2013-02-25 13:26:00,41.1,34.1,18.84,ENE,69,0.0,1.0,76,0.29,,,0.05,Wunderground v.1.15,2013-02-25 19:26:00,
2013-02-25 13:31:00,40.9,34.2,18.84,ENE,70,0.0,1.0,77,0.13,,,0.06,Wunderground v.1.15,2013-02-25 19:31:00,
2013-02-25 13:36:00,40.6,34.3,18.84,NNE,15,1.0,2.0,78,0.10,,,0.07,Wunderground v.1.15,2013-02-25 19:36:00,
2013-02-25 13:41:00,40.3,34.3,18.84,NNW,331,0.0,2.0,79,0.11,,,0.08,Wunderground v.1.15,2013-02-25 19:41:00,
2013-02-25 13:46:00,40.1,34.4,18.84,NW,308,3.0,4.0,80,0.23,,,0.10,Wunderground v.1.15,2013-02-25 19:46:00,
2013-02-25 13:51:00,39.9,34.5,18.84,NW,319,0.0,1.0,81,0.11,,,0.11,Wunderground v.1.15,2013-02-25 19:51:00,
2013-02-25 13:56:00,39.8,34.8,18.84,NW,319,0.0,3.0,82,0.12,,,0.12,Wunderground v.1.15,2013-02-25 19:56:00,
2013-02-25 14:02:00,39.7,34.7,18.84,NW,319,0.0,0.0,82,0.08,,,0.12,Wunderground v.1.15,2013-02-25 20:02:00,
2013-02-25 14:07:00,39.6,34.9,18.84,NW,319,0.0,0.0,83,0.05,,,0.12,Wunderground v.1.15,2013-02-25 20:07:00,
2013-02-25 14:12:00,39.6,34.9,18.84,NW,319,0.0,0.0,83,0.26,,,0.14,Wunderground v.1.15,2013-02-25 20:12:00,
2013-02-25 14:17:00,39.5,35.1,18.84,NW,318,0.0,1.0,84,0.14,,,0.15,Wunderground v.1.15,2013-02-25 20:17:00,
2013-02-25 14:22:00,39.4,35.0,18.84,NNW,329,0.0,3.0,84,0.17,,,0.17,Wunderground v.1.15,2013-02-25 20:22:00,
2013-02-25 14:27:00,39.3,35.2,18.84,WNW,284,0.0,3.0,85,0.13,,,0.18,Wunderground v.1.15,2013-02-25 20:27:00,
2013-02-25 14:32:00,39.3,35.2,18.84,NNW,347,0.0,0.0,85,0.10,,,0.18,Wunderground v.1.15,2013-02-25 20:32:00,
2013-02-25 14:37:00,39.3,35.5,18.84,NW,307,0.0,1.0,86,0.05,,,0.18,Wunderground v.1.15,2013-02-25 20:37:00,
2013-02-25 14:42:00,39.2,35.4,18.84,NW,308,0.0,2.0,86,0.04,,,0.18,Wunderground v.1.15,2013-02-25 20:42:00,
2013-02-25 14:47:00,39.2,35.4,18.84,NNW,338,0.0,5.0,86,0.00,,,0.19,Wunderground v.1.15,2013-02-25 20:47:00,
2013-02-25 14:52:00,39.2,35.7,18.84,NW,325,0.0,2.0,87,0.00,,,0.19,Wunderground v.1.15,2013-02-25 20:52:00,
2013-02-25 14:57:00,39.2,35.7,18.84,NNW,333,0.0,3.0,87,0.05,,,0.20,Wunderground v.1.15,2013-02-25 20:57:00,
2013-02-25 15:02:00,39.2,35.7,18.84,NW,321,5.0,8.0,87,0.05,,,0.20,Wunderground v.1.15,2013-02-25 21:02:00,
2013-02-25 15:07:00,39.3,36.0,18.84,NW,321,0.0,8.0,88,0.05,,,0.20,Wunderground v.1.15,2013-02-25 21:07:00,
2013-02-25 15:12:00,39.3,36.0,18.84,SW,236,0.0,1.0,88,0.04,,,0.20,Wunderground v.1.15,2013-02-25 21:12:00,
2013-02-25 15:17:00,39.5,36.2,18.84,ESE,109,0.0,1.0,88,0.00,,,0.20,Wunderground v.1.15,2013-02-25 21:17:00,
2013-02-25 15:22:00,39.6,36.3,18.84,NW,306,0.0,2.0,88,0.00,,,0.20,Wunderground v.1.15,2013-02-25 21:22:00,
2013-02-25 15:27:00,39.7,36.7,18.84,SE,126,1.0,6.0,89,0.00,,,0.20,Wunderground v.1.15,2013-02-25 21:27:00,
2013-02-25 15:32:00,39.8,36.8,18.84,NNW,337,0.0,2.0,89,0.00,,,0.20,Wunderground v.1.15,2013-02-25 21:32:00,
2013-02-25 15:37:00,39.9,36.9,18.84,WNW,289,0.0,4.0,89,0.00,,,0.20,Wunderground v.1.15,2013-02-25 21:37:00,
2013-02-25 15:42:00,39.9,36.9,18.84,East,79,0.0,6.0,89,0.00,,,0.20,Wunderground v.1.15,2013-02-25 21:42:00,
2013-02-25 15:47:00,40.0,37.0,18.84,NNW,334,5.0,7.0,89,0.00,,,0.20,Wunderground v.1.15,2013-02-25 21:47:00,
2013-02-25 15:52:00,40.0,37.0,18.84,ENE,75,1.0,4.0,89,0.00,,,0.20,Wunderground v.1.15,2013-02-25 21:52:00,
2013-02-25 15:57:00,40.1,37.1,18.84,SE,136,2.0,5.0,89,0.00,,,0.20,Wunderground v.1.15,2013-02-25 21:57:00,
2013-02-25 16:02:00,40.1,37.1,18.84,SE,126,1.0,4.0,89,0.00,,,0.20,Wunderground v.1.15,2013-02-25 22:02:00,
2013-02-25 16:07:00,40.1,37.1,18.84,SSE,151,1.0,5.0,89,0.00,,,0.20,Wunderground v.1.15,2013-02-25 22:07:00,
2013-02-25 16:12:00,40.2,37.2,18.84,WNW,303,0.0,5.0,89,0.00,,,0.20,Wunderground v.1.15,2013-02-25 22:12:00,
2013-02-25 16:17:00,40.2,37.2,18.84,East,94,3.0,5.0,89,0.00,,,0.20,Wunderground v.1.15,2013-02-25 22:17:00,
2013-02-25 16:22:00,40.2,37.2,17.28,NNW,329,0.0,2.0,89,0.00,,,0.20,Wunderground v.1.15,2013-02-25 22:22:00,
2013-02-25 16:27:00,40.2,37.2,17.28,SE,142,2.0,5.0,89,0.00,,,0.21,Wunderground v.1.15,2013-02-25 22:27:00,
2013-02-25 16:32:00,40.3,37.3,17.28,North,360,0.0,3.0,89,0.00,,,0.21,Wunderground v.1.15,2013-02-25 22:32:00,
2013-02-25 16:37:00,40.3,37.3,16.43,ESE,114,0.0,6.0,89,0.00,,,0.21,Wunderground v.1.15,2013-02-25 22:37:00,
2013-02-25 16:42:00,40.4,37.4,16.43,East,91,0.0,3.0,89,0.00,,,0.21,Wunderground v.1.15,2013-02-25 22:42:00,
2013-02-25 16:47:00,40.4,37.4,16.43,NW,320,0.0,4.0,89,0.00,,,0.22,Wunderground v.1.15,2013-02-25 22:47:00,
2013-02-25 16:52:00,40.3,37.3,16.43,South,169,1.0,3.0,89,0.00,,,0.22,Wunderground v.1.15,2013-02-25 22:52:00,
2013-02-25 16:57:00,40.3,37.3,17.04,NW,310,3.0,5.0,89,0.00,,,0.22,Wunderground v.1.15,2013-02-25 22:57:00,
2013-02-25 17:02:00,40.3,37.3,17.04,NE,36,0.0,4.0,89,0.00,,,0.22,Wunderground v.1.15,2013-02-25 23:02:00,
2013-02-25 17:07:00,40.3,37.3,17.04,ENE,74,0.0,4.0,89,0.00,,,0.22,Wunderground v.1.15,2013-02-25 23:07:00,
2013-02-25 17:12:00,40.3,37.3,17.04,ENE,61,0.0,3.0,89,0.00,,,0.22,Wunderground v.1.15,2013-02-25 23:12:00,
2013-02-25 17:17:00,40.3,37.3,17.04,NE,52,0.0,6.0,89,0.00,,,0.22,Wunderground v.1.15,2013-02-25 23:17:00,
2013-02-25 17:22:00,40.3,37.3,17.04,NNW,329,2.0,7.0,89,0.00,,,0.22,Wunderground v.1.15,2013-02-25 23:22:00,
2013-02-25 17:28:00,40.2,37.2,17.04,ESE,103,0.0,10.0,89,0.00,,,0.22,Wunderground v.1.15,2013-02-25 23:28:00,
2013-02-25 17:32:00,40.1,37.1,17.04,East,90,2.0,4.0,89,0.00,,,0.22,Wunderground v.1.15,2013-02-25 23:32:00,
2013-02-25 17:37:00,40.1,37.1,17.04,ENE,62,2.0,9.0,89,0.00,,,0.22,Wunderground v.1.15,2013-02-25 23:37:00,
2013-02-25 17:42:00,40.0,37.0,17.04,ENE,67,3.0,6.0,89,0.00,,,0.22,Wunderground v.1.15,2013-02-25 23:42:00,
2013-02-25 17:47:00,39.9,36.9,17.04,East,97,2.0,7.0,89,0.00,,,0.22,Wunderground v.1.15,2013-02-25 23:47:00,
2013-02-25 17:52:00,39.9,36.9,17.04,ENE,60,3.0,6.0,89,0.00,,,0.22,Wunderground v.1.15,2013-02-25 23:52:00,
2013-02-25 17:57:00,39.8,36.8,17.04,ESE,115,2.0,9.0,89,0.00,,,0.22,Wunderground v.1.15,2013-02-25 23:57:00,
2013-02-25 18:02:00,39.8,36.8,17.04,ENE,65,2.0,9.0,89,0.00,,,0.22,Wunderground v.1.15,2013-02-26 00:02:00,
2013-02-25 18:07:00,39.8,36.5,17.04,NNE,29,3.0,9.0,88,0.00,,,0.22,Wunderground v.1.15,2013-02-26 00:07:00,
2013-02-25 18:12:00,39.8,36.5,17.04,SSW,197,0.0,6.0,88,0.00,,,0.22,Wunderground v.1.15,2013-02-26 00:12:00,
2013-02-25 18:17:00,39.9,36.6,17.04,ENE,76,0.0,6.0,88,0.00,,,0.22,Wunderground v.1.15,2013-02-26 00:17:00,
2013-02-25 18:22:00,39.8,36.5,17.04,NNW,329,3.0,9.0,88,0.00,,,0.22,Wunderground v.1.15,2013-02-26 00:22:00,
2013-02-25 18:28:00,39.8,36.5,17.04,NE,56,3.0,9.0,88,0.00,,,0.22,Wunderground v.1.15,2013-02-26 00:28:00,
2013-02-25 18:33:00,39.9,36.3,17.04,East,92,0.0,4.0,87,0.00,,,0.22,Wunderground v.1.15,2013-02-26 00:33:00,
2013-02-25 18:38:00,39.9,36.3,17.04,NE,53,0.0,6.0,87,0.00,,,0.22,Wunderground v.1.15,2013-02-26 00:38:00,
2013-02-25 18:43:00,39.9,36.3,17.04,NE,40,2.0,9.0,87,0.00,,,0.22,Wunderground v.1.15,2013-02-26 00:43:00,
2013-02-25 18:48:00,39.9,36.3,17.04,ESE,122,2.0,9.0,87,0.00,,,0.22,Wunderground v.1.15,2013-02-26 00:48:00,
2013-02-25 18:53:00,39.9,36.3,17.04,North,355,1.0,7.0,87,0.00,,,0.22,Wunderground v.1.15,2013-02-26 00:53:00,
2013-02-25 18:58:00,39.8,36.2,17.04,ENE,58,3.0,11.0,87,0.00,,,0.22,Wunderground v.1.15,2013-02-26 00:58:00,
2013-02-25 19:03:00,39.8,36.2,17.04,ENE,78,2.0,5.0,87,0.00,,,0.22,Wunderground v.1.15,2013-02-26 01:03:00,
2013-02-25 19:08:00,39.7,36.1,17.04,SE,132,2.0,6.0,87,0.00,,,0.22,Wunderground v.1.15,2013-02-26 01:08:00,
2013-02-25 19:13:00,39.7,36.1,17.04,WNW,301,0.0,5.0,87,0.00,,,0.22,Wunderground v.1.15,2013-02-26 01:13:00,
2013-02-25 19:18:00,39.7,36.1,17.04,SE,130,1.0,5.0,87,0.00,,,0.22,Wunderground v.1.15,2013-02-26 01:18:00,
2013-02-25 19:23:00,39.6,36.0,17.04,SSE,167,1.0,3.0,87,0.00,,,0.22,Wunderground v.1.15,2013-02-26 01:23:00,
2013-02-25 19:28:00,39.6,36.0,17.04,ESE,111,0.0,5.0,87,0.00,,,0.22,Wunderground v.1.15,2013-02-26 01:28:00,
2013-02-25 19:33:00,39.5,36.0,17.04,NNE,15,1.0,6.0,87,0.00,,,0.22,Wunderground v.1.15,2013-02-26 01:33:00,
2013-02-25 19:38:00,39.5,36.0,17.04,ESE,105,0.0,6.0,87,0.00,,,0.22,Wunderground v.1.15,2013-02-26 01:38:00,
2013-02-25 19:43:00,39.5,36.0,17.04,SE,133,5.0,6.0,87,0.00,,,0.22,Wunderground v.1.15,2013-02-26 01:43:00,
2013-02-25 19:48:00,39.5,36.0,17.04,ESE,113,0.0,9.0,87,0.00,,,0.22,Wunderground v.1.15,2013-02-26 01:48:00,
2013-02-25 19:53:00,39.5,36.0,17.04,ESE,117,1.0,9.0,87,0.00,,,0.22,Wunderground v.1.15,2013-02-26 01:53:00,
2013-02-25 19:58:00,39.5,36.2,17.04,NNE,13,6.0,9.0,88,0.00,,,0.22,Wunderground v.1.15,2013-02-26 01:58:00,
2013-02-25 20:03:00,39.5,36.2,17.04,NE,40,2.0,6.0,88,0.00,,,0.22,Wunderground v.1.15,2013-02-26 02:03:00,
2013-02-25 20:08:00,39.5,36.2,17.04,SE,134,3.0,6.0,88,0.00,,,0.22,Wunderground v.1.15,2013-02-26 02:08:00,
2013-02-25 20:13:00,39.5,36.2,17.04,South,179,6.0,7.0,88,0.00,,,0.22,Wunderground v.1.15,2013-02-26 02:13:00,
2013-02-25 20:18:00,39.4,36.1,17.04,North,355,2.0,7.0,88,0.00,,,0.22,Wunderground v.1.15,2013-02-26 02:18:00,
2013-02-25 20:23:00,39.4,36.1,17.04,ENE,57,4.0,13.0,88,0.00,,,0.22,Wunderground v.1.15,2013-02-26 02:23:00,
2013-02-25 20:28:00,39.3,36.0,17.04,NNE,26,2.0,13.0,88,0.00,,,0.22,Wunderground v.1.15,2013-02-26 02:28:00,
2013-02-25 20:33:00,39.3,36.0,17.04,East,80,0.0,7.0,88,0.00,,,0.22,Wunderground v.1.15,2013-02-26 02:33:00,
2013-02-25 20:38:00,39.3,36.0,17.04,NNE,26,1.0,7.0,88,0.00,,,0.22,Wunderground v.1.15,2013-02-26 02:38:00,
2013-02-25 20:43:00,39.3,36.3,17.04,SE,132,2.0,7.0,89,0.00,,,0.22,Wunderground v.1.15,2013-02-26 02:43:00,
2013-02-25 20:48:00,39.3,36.3,17.04,ESE,118,0.0,7.0,89,0.00,,,0.22,Wunderground v.1.15,2013-02-26 02:48:00,
2013-02-25 20:53:00,39.3,36.3,17.04,SE,130,1.0,7.0,89,0.00,,,0.22,Wunderground v.1.15,2013-02-26 02:53:00,
2013-02-25 20:58:00,39.3,36.3,17.04,NE,46,2.0,9.0,89,0.00,,,0.22,Wunderground v.1.15,2013-02-26 02:58:00,
2013-02-25 21:04:00,39.3,36.3,17.04,ENE,61,4.0,5.0,89,0.00,,,0.22,Wunderground v.1.15,2013-02-26 03:04:00,
2013-02-25 21:09:00,39.3,36.3,17.04,ESE,115,1.0,7.0,89,0.00,,,0.22,Wunderground v.1.15,2013-02-26 03:09:00,
2013-02-25 21:14:00,39.3,36.3,17.04,NE,52,1.0,11.0,89,0.00,,,0.22,Wunderground v.1.15,2013-02-26 03:14:00,
2013-02-25 21:19:00,39.3,36.3,17.04,SW,228,2.0,11.0,89,0.00,,,0.22,Wunderground v.1.15,2013-02-26 03:19:00,
2013-02-25 21:24:00,39.2,36.2,17.04,ENE,67,1.0,4.0,89,0.00,,,0.22,Wunderground v.1.15,2013-02-26 03:24:00,
2013-02-25 21:29:00,39.2,36.2,17.04,SE,144,1.0,4.0,89,0.00,,,0.22,Wunderground v.1.15,2013-02-26 03:29:00,
2013-02-25 21:34:00,39.1,36.1,17.04,ENE,58,0.0,5.0,89,0.00,,,0.22,Wunderground v.1.15,2013-02-26 03:34:00,
2013-02-25 21:39:00,39.1,36.1,17.04,ESE,110,0.0,5.0,89,0.00,,,0.22,Wunderground v.1.15,2013-02-26 03:39:00,
2013-02-25 21:44:00,39.1,36.1,17.04,ESE,111,0.0,1.0,89,0.00,,,0.22,Wunderground v.1.15,2013-02-26 03:44:00,
2013-02-25 21:49:00,39.1,36.1,17.04,SE,129,0.0,3.0,89,0.00,,,0.23,Wunderground v.1.15,2013-02-26 03:49:00,
2013-02-25 21:54:00,39.1,36.1,17.04,NNW,345,0.0,1.0,89,0.00,,,0.23,Wunderground v.1.15,2013-02-26 03:54:00,
2013-02-25 21:59:00,39.1,36.1,17.04,NE,53,2.0,3.0,89,0.00,,,0.23,Wunderground v.1.15,2013-02-26 03:59:00,
2013-02-25 22:04:00,39.1,36.1,17.04,SSE,168,3.0,3.0,89,0.00,,,0.23,Wunderground v.1.15,2013-02-26 04:04:00,
2013-02-25 22:09:00,39.1,36.1,17.04,NE,43,0.0,5.0,89,0.00,,,0.23,Wunderground v.1.15,2013-02-26 04:09:00,
2013-02-25 22:14:00,39.0,36.0,17.04,ENE,65,4.0,4.0,89,0.00,,,0.23,Wunderground v.1.15,2013-02-26 04:14:00,
2013-02-25 22:19:00,38.9,35.9,17.04,SSW,205,2.0,4.0,89,0.00,,,0.23,Wunderground v.1.15,2013-02-26 04:19:00,
2013-02-25 22:24:00,38.9,35.6,17.04,West,261,1.0,4.0,88,0.00,,,0.24,Wunderground v.1.15,2013-02-26 04:24:00,
2013-02-25 22:29:00,38.8,35.6,17.04,SSW,206,1.0,5.0,88,0.10,,,0.24,Wunderground v.1.15,2013-02-26 04:29:00,
2013-02-25 22:34:00,38.7,35.5,17.04,ENE,67,0.0,4.0,88,0.19,,,0.26,Wunderground v.1.15,2013-02-26 04:34:00,
2013-02-25 22:39:00,38.6,35.4,17.04,ESE,117,0.0,5.0,88,0.10,,,0.26,Wunderground v.1.15,2013-02-26 04:39:00,
2013-02-25 22:44:00,38.4,35.2,17.04,East,86,2.0,3.0,88,0.16,,,0.27,Wunderground v.1.15,2013-02-26 04:44:00,
2013-02-25 22:49:00,38.3,35.3,17.04,SE,128,0.0,3.0,89,0.28,,,0.29,Wunderground v.1.15,2013-02-26 04:49:00,
2013-02-25 22:54:00,38.1,34.9,17.04,ESE,109,0.0,3.0,88,0.12,,,0.29,Wunderground v.1.15,2013-02-26 04:54:00,
2013-02-25 22:59:00,37.9,34.9,17.04,ESE,115,0.0,3.0,89,0.14,,,0.31,Wunderground v.1.15,2013-02-26 04:59:00,
2013-02-25 23:00:00,37.9,34.9,17.04,ESE,114,0.0,0.0,89,0.14,,,0.31,Wunderground v.1.15,2013-02-26 05:00:00,
2013-02-25 23:05:00,37.8,34.8,17.04,NNW,336,0.0,2.0,89,0.09,,,0.31,Wunderground v.1.15,2013-02-26 05:05:00,
2013-02-25 23:10:00,37.7,34.8,17.04,ENE,69,0.0,2.0,89,0.05,,,0.31,Wunderground v.1.15,2013-02-26 05:10:00,
2013-02-25 23:15:00,37.6,34.7,17.04,ENE,67,0.0,2.0,89,0.04,,,0.31,Wunderground v.1.15,2013-02-26 05:15:00,
2013-02-25 23:20:00,37.5,34.6,17.04,NE,52,0.0,1.0,89,0.00,,,0.31,Wunderground v.1.15,2013-02-26 05:20:00,
2013-02-25 23:25:00,37.4,34.5,17.04,SE,134,0.0,2.0,89,0.00,,,0.31,Wunderground v.1.15,2013-02-26 05:25:00,
2013-02-25 23:30:00,37.3,34.4,17.04,East,80,0.0,0.0,89,0.00,,,0.31,Wunderground v.1.15,2013-02-26 05:30:00,
2013-02-25 23:35:00,37.2,34.3,17.04,East,80,0.0,1.0,89,0.00,,,0.31,Wunderground v.1.15,2013-02-26 05:35:00,
2013-02-25 23:40:00,37.2,34.3,17.04,East,79,0.0,0.0,89,0.00,,,0.31,Wunderground v.1.15,2013-02-26 05:40:00,
2013-02-25 23:45:00,37.1,34.2,17.04,East,80,0.0,1.0,89,0.00,,,0.31,Wunderground v.1.15,2013-02-26 05:45:00,
2013-02-25 23:50:00,37.1,34.2,17.04,East,80,0.0,0.0,89,0.00,,,0.31,Wunderground v.1.15,2013-02-26 05:50:00,
2013-02-25 23:55:00,37.1,34.4,17.04,East,80,0.0,0.0,90,0.00,,,0.31,Wunderground v.1.15,2013-02-26 05:55:00,